Weather History for TISX - July, 2013

Change the Weather History Date:

Wednesday, July 24, 2013

  Actual Average Record
Temperature  
Mean Temperature 83 °F 84 °F  
Max Temperature 89 °F 89 °F 92 °F (1989)
Min Temperature 77 °F 79 °F 69 °F (1983)
Degree Days  
Heating Degree Days 0 0  
Month to date heating degree days 0 0  
Since 1 June heating degree days 0 0  
Since 1 July heating degree days 0 0  
Cooling Degree Days 18 19  
Month to date cooling degree days 449 456  
Year to date cooling degree days 2955 3149  
Since 1 June cooling degree days 894 996  
Growing Degree Days 33 (Base 50)    
Moisture  
Dew Point 73 °F    
Average Humidity 74    
Maximum Humidity 88    
Minimum Humidity 59    
Precipitation  
Precipitation 0.00 in 0.10 in 1.74 in (1983)
Month to date precipitation 1.03 2.27  
Year to date precipitation 16.14 16.21  
Sea Level Pressure  
Sea Level Pressure 29.99 in    
Wind  
Wind Speed 8 mph (ENE)    
Max Wind Speed 15 mph    
Max Gust Speed 20 mph    
Visibility 10 miles    
Events      
T = Trace of Precipitation, MM = Missing Value Source: NWS Daily Summary

Daily Weather History Graph

Daily Weather History Graph

Search for Another Location

Airport or City:

Trip Planner

Search our weather history database for the weather conditions in past years. The results will help you decide how hot, cold, wet, or windy it might be!

Date:

Astronomy

Jul. 24, 2013 Rise Set
Actual Time 5:55 AM AST 6:55 PM AST
Civil Twilight 5:32 AM AST 7:19 PM AST
Nautical Twilight 5:04 AM AST 7:46 PM AST
Astronomical Twilight 4:36 AM AST 8:14 PM AST
Moon 8:31 PM AST (7/24) 7:44 AM AST (7/24)
Length of Visible Light 13h 46m
Length of Day
13h 00m
Waning Gibbous, 95% of the Moon is Illuminated
Jul 24
Waning Gibbous
Jul 29
Last Quarter
Aug 6
New
Aug 14
First Quarter
Aug 20
Full

Hourly Weather History & Observations

Time (AST) Temp. Heat Index Dew Point Humidity Pressure Visibility Wind Dir Wind Speed Gust Speed Precip Events Conditions
12:53 AM 79.0 °F - 73.9 °F 84% 30.00 in 10.0 mi NE 4.6 mph - N/A   Clear
1:53 AM 78.1 °F - 73.9 °F 87% 29.98 in 10.0 mi NE 4.6 mph - N/A   Clear
2:53 AM 78.1 °F - 73.0 °F 84% 29.98 in 10.0 mi ENE 4.6 mph - N/A   Clear
3:53 AM 77.0 °F - 73.0 °F 88% 29.97 in 10.0 mi NE 3.5 mph - N/A   Clear
4:53 AM 77.0 °F - 73.0 °F 88% 29.98 in 10.0 mi NE 4.6 mph - N/A   Clear
5:53 AM 77.0 °F - 73.0 °F 88% 29.98 in 10.0 mi NNE 4.6 mph - N/A   Clear
6:53 AM 79.0 °F - 73.9 °F 84% 30.00 in 10.0 mi NE 3.5 mph - N/A   Clear
7:53 AM 82.9 °F 90.2 °F 75.0 °F 77% 30.01 in 10.0 mi East 8.1 mph - N/A   Partly Cloudy
8:53 AM 84.9 °F 90.7 °F 72.0 °F 65% 30.02 in 10.0 mi ESE 10.4 mph - N/A   Partly Cloudy
10:53 AM 87.1 °F 94.5 °F 73.0 °F 63% 30.04 in 10.0 mi SE 11.5 mph - N/A   Clear
11:53 AM 88.0 °F 97.5 °F 75.0 °F 65% 30.03 in 10.0 mi SE 12.7 mph - N/A   Scattered Clouds
12:53 PM 88.0 °F 96.5 °F 73.9 °F 63% 30.01 in 10.0 mi SE 12.7 mph - N/A   Partly Cloudy
1:53 PM 88.0 °F 94.7 °F 72.0 °F 59% 29.99 in 10.0 mi ESE 13.8 mph - N/A   Partly Cloudy
2:53 PM 89.1 °F 97.0 °F 73.0 °F 59% 29.97 in 10.0 mi ESE 11.5 mph - N/A   Scattered Clouds
3:53 PM 88.0 °F 94.7 °F 72.0 °F 59% 29.97 in 10.0 mi ESE 11.5 mph - N/A   Clear
4:53 PM 86.0 °F 91.5 °F 71.1 °F 61% 29.96 in 10.0 mi ESE 10.4 mph - N/A   Partly Cloudy
5:53 PM 86.0 °F 92.2 °F 72.0 °F 63% 29.97 in 10.0 mi ENE 10.4 mph - N/A   Scattered Clouds
6:53 PM 82.9 °F 88.8 °F 73.0 °F 72% 29.98 in 10.0 mi ENE 8.1 mph - N/A   Partly Cloudy
7:53 PM 82.0 °F 87.9 °F 73.9 °F 76% 29.99 in 10.0 mi NE 4.6 mph - N/A   Clear
8:53 PM 81.0 °F 86.2 °F 73.9 °F 79% 30.00 in 10.0 mi NNE 3.5 mph - N/A   Clear
10:53 PM 81.0 °F 86.2 °F 73.9 °F 79% 30.02 in 10.0 mi NE 4.6 mph - N/A   Clear
11:53 PM 81.0 °F 86.2 °F 73.9 °F 79% 30.01 in 10.0 mi NE 6.9 mph - N/A   Clear